| time (UTC) | temp F | wind direction | speed MPH | gust MPH | rain 1hr in | rain 24hr in | rain mn in | humidity % | barometer mb |
| 20260902022647 | 82 | 155 | 3.0 | 4.0 | 0.00 | 0.00 | 0.29 | 88 | 1016.3 |
| 20260902022148 | 82 | 169 | 2.0 | 3.0 | 0.00 | 0.00 | 0.29 | 87 | 1015.9 |
| 20260902021646 | 82 | 171 | 2.0 | 3.0 | 0.00 | 0.00 | 0.29 | 87 | 1015.9 |
| 20260902021146 | 82 | 160 | 0.0 | 3.0 | 0.00 | 0.00 | 0.29 | 86 | 1015.9 |
| 20260902020646 | 82 | 153 | 1.0 | 3.0 | 0.00 | 0.00 | 0.29 | 86 | 1015.6 |
| 20260902020146 | 82 | 141 | 2.0 | 3.0 | 0.00 | 0.00 | 0.29 | 86 | 1015.9 |
| 20260902015646 | 83 | 246 | 0.0 | 2.0 | 0.00 | 0.00 | 0.29 | 85 | 1015.9 |
| 20260902015147 | 83 | 118 | 1.0 | 5.0 | 0.00 | 0.00 | 0.29 | 85 | 1015.6 |
| 20260902014647 | 83 | 64 | 2.0 | 3.0 | 0.00 | 0.00 | 0.29 | 85 | 1015.6 |
| 20260902014146 | 83 | 107 | 0.0 | 2.0 | 0.00 | 0.00 | 0.29 | 85 | 1015.6 |
| 20260902013646 | 82 | 59 | 0.0 | 3.0 | 0.00 | 0.00 | 0.29 | 85 | 1015.6 |
| 20260902013146 | 82 | 169 | 0.0 | 3.0 | 0.00 | 0.00 | 0.29 | 85 | 1015.6 |
| 20260902012647 | 82 | 153 | 3.0 | 3.0 | 0.00 | 0.00 | 0.29 | 85 | 1015.2 |
| 20260902012146 | 82 | 167 | 3.0 | 3.0 | 0.00 | 0.00 | 0.29 | 84 | 1015.2 |
| 20260902011647 | 82 | 147 | 3.0 | 3.0 | 0.00 | 0.00 | 0.29 | 84 | 1015.2 |
| 20260902011147 | 82 | 167 | 2.0 | 3.0 | 0.00 | 0.00 | 0.29 | 84 | 1015.2 |
| 20260902010646 | 82 | 149 | 2.0 | 2.0 | 0.00 | 0.00 | 0.29 | 84 | 1015.2 |
| 20260902010146 | 82 | 136 | 2.0 | 2.0 | 0.00 | 0.00 | 0.29 | 84 | 1015.2 |
| 20260902005646 | 83 | 89 | 0.0 | 1.0 | 0.00 | 0.00 | 0.29 | 83 | 1015.2 |
| 20260902005148 | 83 | 191 | 0.0 | 2.0 | 0.00 | 0.00 | 0.29 | 83 | 1014.9 |
| 20260902004647 | 83 | 172 | 2.0 | 2.0 | 0.00 | 0.00 | 0.29 | 83 | 1015.2 |
| 20260902004146 | 83 | 189 | 2.0 | 2.0 | 0.00 | 0.00 | 0.29 | 83 | 1015.2 |
| 20260902003646 | 83 | 158 | 0.0 | 1.0 | 0.00 | 0.00 | 0.29 | 83 | 1015.2 |
| 20260902003147 | 83 | 159 | 2.0 | 3.0 | 0.00 | 0.00 | 0.29 | 82 | 1014.9 |
| 20260902002646 | 83 | 170 | 2.0 | 3.0 | 0.00 | 0.00 | 0.29 | 82 | 1015.2 |
| 20260902002147 | 83 | 165 | 3.0 | 3.0 | 0.00 | 0.00 | 0.29 | 81 | 1014.9 |
| 20260902001647 | 84 | 141 | 0.0 | 3.0 | 0.00 | 0.00 | 0.29 | 80 | 1015.2 |
| 20260902001147 | 84 | 154 | 0.0 | 2.0 | 0.00 | 0.00 | 0.29 | 80 | 1014.9 |
| 20260902000646 | 83 | 157 | 2.0 | 3.0 | 0.00 | 0.00 | 0.29 | 80 | 1014.9 |
| 20260902000146 | 84 | 179 | 2.0 | 3.0 | 0.00 | 0.00 | 0.29 | 79 | 1014.9 |
| 20260901235647 | 84 | 139 | 2.0 | 4.0 | 0.00 | 0.00 | 0.29 | 79 | 1014.9 |
| 20260901235146 | 84 | 123 | 1.0 | 2.0 | 0.00 | 0.00 | 0.29 | 80 | 1014.9 |
| 20260901234646 | 84 | 217 | 0.0 | 2.0 | 0.00 | 0.00 | 0.29 | 80 | 1014.9 |
| 20260901234146 | 84 | 177 | 2.0 | 2.0 | 0.00 | 0.00 | 0.29 | 79 | 1014.9 |
| 20260901233646 | 83 | 174 | 2.0 | 3.0 | 0.00 | 0.00 | 0.29 | 78 | 1014.9 |
| 20260901233147 | 83 | 173 | 2.0 | 3.0 | 0.00 | 0.00 | 0.29 | 79 | 1014.9 |
| 20260901232646 | 83 | 164 | 4.0 | 5.0 | 0.00 | 0.00 | 0.29 | 79 | 1014.9 |
| 20260901232146 | 83 | 140 | 3.0 | 5.0 | 0.00 | 0.00 | 0.29 | 78 | 1014.6 |
| 20260901231646 | 84 | 153 | 3.0 | 4.0 | 0.00 | 0.00 | 0.29 | 78 | 1014.9 |
| 20260901231147 | 84 | 165 | 3.0 | 4.0 | 0.00 | 0.00 | 0.29 | 80 | 1015.2 |
| 20260901230650 | 84 | 177 | 3.0 | 6.0 | 0.00 | 0.00 | 0.29 | 80 | 1015.2 |
| 20260901230146 | 83 | 165 | 3.0 | 5.0 | 0.00 | 0.00 | 0.29 | 80 | 1014.9 |
| 20260901225646 | 83 | 175 | 4.0 | 9.0 | 0.00 | 0.00 | 0.29 | 80 | 1015.2 |
| 20260901225146 | 83 | 171 | 3.0 | 4.0 | 0.00 | 0.00 | 0.29 | 85 | 1015.2 |
| 20260901224646 | 83 | 164 | 5.0 | 5.0 | 0.00 | 0.00 | 0.29 | 84 | 1015.2 |
| 20260901224150 | 83 | 177 | 5.0 | 7.0 | 0.00 | 0.00 | 0.29 | 85 | 1015.2 |
| 20260901223647 | 83 | 183 | 5.0 | 5.0 | 0.00 | 0.00 | 0.29 | 84 | 1015.2 |
| 20260901223146 | 83 | 184 | 4.0 | 6.0 | 0.00 | 0.00 | 0.29 | 84 | 1015.2 |
| 20260901222646 | 84 | 188 | 5.0 | 8.0 | 0.00 | 0.00 | 0.29 | 83 | 1015.2 |
| 20260901222147 | 84 | 168 | 5.0 | 6.0 | 0.00 | 0.00 | 0.29 | 81 | 1015.2 |
| 20260901221646 | 84 | 174 | 4.0 | 6.0 | 0.00 | 0.00 | 0.29 | 82 | 1015.2 |
| 20260901221146 | 84 | 179 | 5.0 | 5.0 | 0.00 | 0.00 | 0.29 | 81 | 1015.2 |
| 20260901220648 | 84 | 170 | 4.0 | 4.0 | 0.00 | 0.00 | 0.29 | 79 | 1014.9 |
| 20260901220146 | 84 | 76 | 1.0 | 7.0 | 0.00 | 0.00 | 0.29 | 79 | 1015.2 |
| 20260901215646 | 84 | 175 | 5.0 | 5.0 | 0.00 | 0.00 | 0.29 | 80 | 1014.9 |
| 20260901215147 | 84 | 187 | 3.0 | 4.0 | 0.00 | 0.00 | 0.29 | 81 | 1014.9 |
| 20260901214647 | 84 | 168 | 3.0 | 4.0 | 0.00 | 0.00 | 0.29 | 80 | 1015.2 |
| 20260901214147 | 84 | 175 | 6.0 | 6.0 | 0.00 | 0.00 | 0.29 | 79 | 1015.2 |
| 20260901213647 | 84 | 178 | 3.0 | 4.0 | 0.00 | 0.00 | 0.29 | 80 | 1015.2 |
| 20260901213146 | 84 | 178 | 4.0 | 5.0 | 0.00 | 0.00 | 0.29 | 79 | 1015.2 |
| 20260901212647 | 83 | 177 | 3.0 | 7.0 | 0.00 | 0.00 | 0.29 | 80 | 1015.2 |
| 20260901212146 | 84 | 187 | 2.0 | 3.0 | 0.00 | 0.00 | 0.29 | 78 | 1015.2 |
| 20260901211646 | 84 | 330 | 0.0 | 3.0 | 0.00 | 0.00 | 0.29 | 77 | 1015.2 |
| 20260901211147 | 84 | 215 | 1.0 | 3.0 | 0.00 | 0.00 | 0.29 | 78 | 1015.2 |
| 20260901210647 | 83 | 209 | 2.0 | 4.0 | 0.00 | 0.00 | 0.29 | 79 | 1015.2 |
| 20260901210152 | 84 | 164 | 2.0 | 4.0 | 0.00 | 0.00 | 0.29 | 79 | 1015.2 |
| 20260901205647 | 84 | 166 | 3.0 | 3.0 | 0.00 | 0.00 | 0.29 | 79 | 1015.2 |
| 20260901205146 | 84 | 58 | 3.0 | 3.0 | 0.00 | 0.00 | 0.29 | 79 | 1015.2 |
| 20260901204647 | 83 | 307 | 2.0 | 2.0 | 0.00 | 0.00 | 0.29 | 80 | 1015.2 |
| 20260901204146 | 83 | 266 | 1.0 | 2.0 | 0.00 | 0.00 | 0.29 | 82 | 1015.6 |
| 20260901203647 | 82 | 213 | 1.0 | 2.0 | 0.00 | 0.00 | 0.29 | 83 | 1015.6 |
| 20260901203147 | 82 | 181 | 3.0 | 3.0 | 0.00 | 0.00 | 0.29 | 83 | 1015.9 |
| 20260901202647 | 82 | 224 | 0.0 | 3.0 | 0.00 | 0.00 | 0.29 | 83 | 1015.9 |
| 20260901202146 | 83 | 197 | 2.0 | 3.0 | 0.00 | 0.00 | 0.29 | 82 | 1015.9 |
| 20260901201647 | 82 | 217 | 1.0 | 3.0 | 0.00 | 0.00 | 0.29 | 83 | 1015.9 |
| 20260901201147 | 82 | 226 | 0.0 | 2.0 | 0.00 | 0.00 | 0.29 | 85 | 1016.3 |
| 20260901200646 | 82 | 259 | 1.0 | 3.0 | 0.00 | 0.00 | 0.29 | 85 | 1016.3 |
| 20260901200147 | 82 | 20 | 3.0 | 4.0 | 0.00 | 0.00 | 0.29 | 85 | 1016.6 |
| 20260901195646 | 82 | 288 | 3.0 | 4.0 | 0.00 | 0.00 | 0.29 | 86 | 1016.3 |
| 20260901195146 | 82 | 324 | 3.0 | 4.0 | 0.00 | 0.00 | 0.29 | 87 | 1016.9 |
| 20260901194648 | 82 | 332 | 3.0 | 4.0 | 0.00 | 0.00 | 0.29 | 87 | 1016.9 |
| 20260901194147 | 82 | 347 | 3.0 | 4.0 | 0.00 | 0.00 | 0.29 | 87 | 1016.9 |
| 20260901193646 | 82 | 360 | 3.0 | 3.0 | 0.00 | 0.00 | 0.29 | 86 | 1016.6 |
| 20260901193148 | 82 | 292 | 2.0 | 4.0 | 0.00 | 0.00 | 0.29 | 83 | 1016.6 |
| 20260901192646 | 81 | 227 | 4.0 | 7.0 | 0.00 | 0.00 | 0.29 | 84 | 1016.3 |
| 20260901192147 | 82 | 229 | 4.0 | 7.0 | 0.00 | 0.00 | 0.29 | 87 | 1016.6 |
| 20260901191647 | 81 | 195 | 6.0 | 8.0 | 0.00 | 0.00 | 0.29 | 88 | 1016.3 |
| 20260901191146 | 81 | 205 | 4.0 | 6.0 | 0.00 | 0.00 | 0.29 | 90 | 1016.3 |
| 20260901190647 | 80 | 204 | 5.0 | 6.0 | 0.00 | 0.00 | 0.29 | 90 | 1016.3 |
| 20260901190147 | 80 | 230 | 6.0 | 8.0 | 0.00 | 0.00 | 0.29 | 90 | 1016.3 |
| 20260901185646 | 79 | 215 | 7.0 | 10.0 | 0.02 | 0.00 | 0.29 | 92 | 1016.6 |
| 20260901185147 | 79 | 185 | 5.0 | 14.0 | 0.21 | 0.00 | 0.28 | 92 | 1015.9 |
| 20260901184647 | 80 | 210 | 4.0 | 15.0 | 0.47 | 0.00 | 0.28 | 92 | 1016.3 |
| 20260901184147 | 80 | 176 | 6.0 | 10.0 | 1.32 | 0.00 | 0.25 | 92 | 1016.6 |
| 20260901183646 | 81 | 174 | 0.0 | 19.0 | 1.11 | 0.00 | 0.20 | 89 | 1016.9 |
| 20260901183147 | 86 | 163 | 6.0 | 10.0 | 0.02 | 0.00 | 0.02 | 79 | 1016.3 |
| 20260901182647 | 88 | 224 | 3.0 | 11.0 | 0.00 | 0.00 | 0.02 | 75 | 1016.3 |
| 20260901182146 | 88 | 150 | 7.0 | 12.0 | 0.00 | 0.00 | 0.02 | 72 | 1015.9 |
| 20260901181647 | 88 | 158 | 7.0 | 11.0 | 0.00 | 0.00 | 0.02 | 73 | 1015.9 |
| 20260901181147 | 89 | 170 | 7.0 | 9.0 | 0.00 | 0.00 | 0.02 | 72 | 1016.3 |
| 20260901180646 | 90 | 150 | 3.0 | 5.0 | 0.00 | 0.00 | 0.02 | 67 | 1016.3 |
| 20260901180146 | 89 | 169 | 4.0 | 8.0 | 0.00 | 0.00 | 0.02 | 69 | 1016.3 |
| 20260901175646 | 89 | 129 | 7.0 | 7.0 | 0.00 | 0.00 | 0.02 | 69 | 1016.6 |
| 20260901175146 | 90 | 171 | 2.0 | 7.0 | 0.00 | 0.00 | 0.02 | 68 | 1016.3 |
| 20260901174647 | 90 | 282 | 1.0 | 7.0 | 0.00 | 0.00 | 0.02 | 69 | 1016.3 |
| 20260901174147 | 89 | 43 | 3.0 | 7.0 | 0.00 | 0.00 | 0.02 | 74 | 1016.3 |
| 20260901173647 | 87 | 214 | 0.0 | 4.0 | 0.00 | 0.00 | 0.02 | 77 | 1016.3 |
| 20260901173147 | 87 | 180 | 2.0 | 6.0 | 0.00 | 0.00 | 0.02 | 78 | 1016.3 |
| 20260901172647 | 86 | 219 | 2.0 | 5.0 | 0.00 | 0.00 | 0.02 | 78 | 1016.3 |
| 20260901172146 | 86 | 223 | 1.0 | 3.0 | 0.00 | 0.00 | 0.02 | 78 | 1016.6 |
| 20260901171647 | 85 | 229 | 2.0 | 3.0 | 0.00 | 0.00 | 0.02 | 80 | 1016.6 |
| 20260901171147 | 84 | 304 | 2.0 | 4.0 | 0.02 | 0.00 | 0.02 | 82 | 1016.6 |
| 20260901170647 | 83 | 235 | 3.0 | 4.0 | 0.02 | 0.00 | 0.02 | 83 | 1016.6 |
| 20260901170146 | 83 | 221 | 3.0 | 6.0 | 0.02 | 0.00 | 0.02 | 84 | 1017.3 |
| 20260901165646 | 84 | 216 | 9.0 | 11.0 | 0.09 | 0.00 | 0.02 | 83 | 1016.9 |
| 20260901165146 | 87 | 204 | 9.0 | 14.0 | 0.07 | 0.00 | 0.01 | 77 | 1016.9 |
| 20260901164646 | 89 | 164 | 3.0 | 10.0 | 0.00 | 0.00 | 0.00 | 67 | 1016.9 |
| 20260901164146 | 89 | 5 | 1.0 | 7.0 | 0.00 | 0.00 | 0.00 | 68 | 1016.9 |
| 20260901163647 | 89 | 142 | 3.0 | 6.0 | 0.00 | 0.00 | 0.00 | 68 | 1016.9 |
| 20260901163146 | 90 | 71 | 5.0 | 7.0 | 0.00 | 0.00 | 0.00 | 68 | 1016.9 |
| 20260901162646 | 90 | 39 | 9.0 | 10.0 | 0.00 | 0.00 | 0.00 | 67 | 1016.9 |
| 20260901162146 | 89 | 51 | 5.0 | 7.0 | 0.00 | 0.00 | 0.00 | 69 | 1016.9 |
| 20260901161649 | 89 | 82 | 3.0 | 8.0 | 0.00 | 0.00 | 0.00 | 69 | 1016.9 |
| 20260901161146 | 89 | 235 | 0.0 | 9.0 | 0.00 | 0.00 | 0.00 | 69 | 1016.6 |
| 20260901160647 | 89 | 82 | 3.0 | 4.0 | 0.00 | 0.00 | 0.00 | 69 | 1016.9 |
| 20260901155647 | 90 | 37 | 1.0 | 5.0 | 0.00 | 0.00 | 0.00 | 68 | 1016.6 |
| 20260901155146 | 89 | 84 | 4.0 | 11.0 | 0.00 | 0.00 | 0.00 | 69 | 1016.6 |
| 20260901154646 | 89 | 149 | 8.0 | 9.0 | 0.00 | 0.00 | 0.00 | 69 | 1016.6 |
| 20260901154146 | 90 | 144 | 6.0 | 6.0 | 0.00 | 0.00 | 0.00 | 69 | 1016.6 |
| 20260901153647 | 89 | 129 | 3.0 | 6.0 | 0.00 | 0.00 | 0.00 | 71 | 1016.9 |
| 20260901153148 | 90 | 80 | 7.0 | 10.0 | 0.00 | 0.00 | 0.00 | 69 | 1016.6 |
| 20260901152647 | 90 | 69 | 2.0 | 8.0 | 0.00 | 0.00 | 0.00 | 70 | 1016.6 |
| 20260901152147 | 90 | 155 | 4.0 | 12.0 | 0.00 | 0.00 | 0.00 | 71 | 1016.6 |
| 20260901151646 | 90 | 69 | 3.0 | 9.0 | 0.00 | 0.00 | 0.00 | 71 | 1016.6 |
| 20260901151147 | 89 | 156 | 3.0 | 10.0 | 0.00 | 0.00 | 0.00 | 71 | 1016.9 |
| 20260901150647 | 90 | 64 | 4.0 | 7.0 | 0.00 | 0.00 | 0.00 | 71 | 1016.9 |
| 20260901150147 | 90 | 150 | 7.0 | 9.0 | 0.00 | 0.00 | 0.00 | 71 | 1016.6 |
| 20260901145646 | 90 | 21 | 5.0 | 7.0 | 0.00 | 0.00 | 0.00 | 72 | 1016.6 |
| 20260901145147 | 89 | 173 | 2.0 | 11.0 | 0.00 | 0.00 | 0.00 | 72 | 1016.6 |
| 20260901144647 | 89 | 57 | 3.0 | 10.0 | 0.00 | 0.00 | 0.00 | 73 | 1016.6 |
| 20260901144146 | 89 | 130 | 2.0 | 8.0 | 0.00 | 0.00 | 0.00 | 74 | 1016.3 |
| 20260901143647 | 89 | 72 | 5.0 | 9.0 | 0.00 | 0.00 | 0.00 | 75 | 1016.6 |
| 20260901143146 | 88 | 86 | 3.0 | 9.0 | 0.00 | 0.00 | 0.00 | 77 | 1016.6 |
| 20260901142647 | 88 | 14 | 2.0 | 7.0 | 0.00 | 0.00 | 0.00 | 78 | 1016.6 |
| 20260901142146 | 88 | 77 | 7.0 | 15.0 | 0.00 | 0.00 | 0.00 | 78 | 1016.6 |
| 20260901141647 | 87 | 82 | 3.0 | 7.0 | 0.00 | 0.00 | 0.00 | 79 | 1016.6 |
| 20260901141147 | 87 | 202 | 3.0 | 7.0 | 0.00 | 0.00 | 0.00 | 79 | 1016.6 |
| 20260901140647 | 87 | 57 | 3.0 | 6.0 | 0.00 | 0.00 | 0.00 | 79 | 1016.6 |
| 20260901140146 | 87 | 77 | 5.0 | 9.0 | 0.00 | 0.00 | 0.00 | 79 | 1016.6 |
| 20260901135647 | 87 | 172 | 3.0 | 6.0 | 0.00 | 0.00 | 0.00 | 79 | 1016.6 |
| 20260901135147 | 87 | 139 | 3.0 | 7.0 | 0.00 | 0.00 | 0.00 | 81 | 1016.6 |
| 20260901134646 | 87 | 67 | 11.0 | 12.0 | 0.00 | 0.00 | 0.00 | 81 | 1016.6 |
| 20260901134147 | 86 | 1 | 1.0 | 7.0 | 0.00 | 0.00 | 0.00 | 81 | 1016.6 |
| 20260901133647 | 86 | 32 | 1.0 | 5.0 | 0.00 | 0.00 | 0.00 | 82 | 1016.6 |
| 20260901133147 | 86 | 160 | 2.0 | 8.0 | 0.00 | 0.00 | 0.00 | 82 | 1016.6 |
| 20260901132647 | 86 | 69 | 3.0 | 6.0 | 0.00 | 0.00 | 0.00 | 83 | 1016.6 |
| 20260901132147 | 86 | 83 | 5.0 | 7.0 | 0.00 | 0.00 | 0.00 | 82 | 1016.6 |
| 20260901131647 | 86 | 2 | 1.0 | 5.0 | 0.00 | 0.00 | 0.00 | 83 | 1016.6 |
| 20260901131146 | 85 | 220 | 1.0 | 4.0 | 0.00 | 0.00 | 0.00 | 83 | 1016.6 |
| 20260901130648 | 86 | 73 | 3.0 | 5.0 | 0.00 | 0.00 | 0.00 | 83 | 1016.6 |
| 20260901130146 | 85 | 43 | 2.0 | 5.0 | 0.00 | 0.00 | 0.00 | 83 | 1016.6 |
| 20260901125647 | 85 | 85 | 2.0 | 5.0 | 0.00 | 0.00 | 0.00 | 83 | 1016.3 |
| 20260901125146 | 85 | 180 | 2.0 | 6.0 | 0.00 | 0.00 | 0.00 | 83 | 1016.3 |
| 20260901124647 | 85 | 91 | 3.0 | 7.0 | 0.00 | 0.00 | 0.00 | 83 | 1016.3 |
| 20260901124146 | 85 | 153 | 3.0 | 5.0 | 0.00 | 0.00 | 0.00 | 83 | 1016.3 |
| 20260901123647 | 84 | 217 | 1.0 | 5.0 | 0.00 | 0.00 | 0.00 | 84 | 1016.3 |
| 20260901123147 | 84 | 66 | 3.0 | 5.0 | 0.00 | 0.00 | 0.00 | 85 | 1015.9 |
| 20260901122646 | 84 | 28 | 4.0 | 6.0 | 0.00 | 0.00 | 0.00 | 85 | 1016.3 |
| 20260901122146 | 83 | 103 | 0.0 | 5.0 | 0.00 | 0.00 | 0.00 | 86 | 1015.9 |
| 20260901121646 | 83 | 22 | 3.0 | 6.0 | 0.00 | 0.00 | 0.00 | 86 | 1015.9 |
| 20260901121148 | 83 | 72 | 2.0 | 4.0 | 0.00 | 0.00 | 0.00 | 87 | 1015.9 |
| 20260901120647 | 82 | 95 | 2.0 | 5.0 | 0.00 | 0.00 | 0.00 | 87 | 1015.9 |
| 20260901120146 | 82 | 42 | 3.0 | 4.0 | 0.00 | 0.00 | 0.00 | 88 | 1015.6 |
| 20260901115646 | 82 | 76 | 3.0 | 5.0 | 0.00 | 0.00 | 0.00 | 89 | 1015.9 |
| 20260901115146 | 82 | 48 | 3.0 | 4.0 | 0.00 | 0.00 | 0.00 | 89 | 1015.6 |
| 20260901114646 | 81 | 36 | 3.0 | 4.0 | 0.00 | 0.00 | 0.00 | 90 | 1015.6 |
| 20260901114148 | 82 | 216 | 1.0 | 5.0 | 0.00 | 0.00 | 0.00 | 89 | 1015.2 |
| 20260901113646 | 82 | 34 | 2.0 | 5.0 | 0.00 | 0.00 | 0.00 | 89 | 1015.6 |
| 20260901113147 | 81 | 100 | 3.0 | 3.0 | 0.00 | 0.00 | 0.00 | 90 | 1015.2 |
| 20260901112646 | 81 | 62 | 0.0 | 3.0 | 0.00 | 0.00 | 0.00 | 90 | 1015.2 |
| 20260901112147 | 82 | 191 | 3.0 | 3.0 | 0.00 | 0.00 | 0.00 | 89 | 1015.2 |
| 20260901111648 | 82 | 74 | 0.0 | 3.0 | 0.00 | 0.00 | 0.00 | 90 | 1015.2 |
| 20260901111146 | 82 | 51 | 0.0 | 2.0 | 0.00 | 0.00 | 0.00 | 90 | 1015.2 |
| 20260901110646 | 82 | 108 | 0.0 | 3.0 | 0.00 | 0.00 | 0.00 | 90 | 1015.2 |
| 20260901110146 | 82 | 124 | 1.0 | 5.0 | 0.00 | 0.00 | 0.00 | 90 | 1014.9 |
| 20260901105646 | 82 | 78 | 3.0 | 3.0 | 0.00 | 0.00 | 0.00 | 90 | 1014.9 |
| 20260901105146 | 82 | 72 | 1.0 | 3.0 | 0.00 | 0.00 | 0.00 | 90 | 1014.9 |
| 20260901104646 | 82 | 116 | 2.0 | 3.0 | 0.00 | 0.00 | 0.00 | 90 | 1014.9 |
| 20260901104147 | 82 | 112 | 0.0 | 3.0 | 0.00 | 0.00 | 0.00 | 90 | 1014.9 |
| 20260901103646 | 82 | 104 | 2.0 | 4.0 | 0.00 | 0.00 | 0.00 | 90 | 1014.9 |
| 20260901103147 | 82 | 49 | 1.0 | 3.0 | 0.00 | 0.00 | 0.00 | 90 | 1014.9 |
| 20260901102647 | 82 | 104 | 2.0 | 3.0 | 0.00 | 0.00 | 0.00 | 91 | 1014.9 |
| 20260901102148 | 82 | 176 | 2.0 | 3.0 | 0.00 | 0.00 | 0.00 | 90 | 1014.9 |
| 20260901101646 | 82 | 155 | 0.0 | 2.0 | 0.00 | 0.00 | 0.00 | 90 | 1014.6 |
| 20260901101147 | 82 | 61 | 2.0 | 3.0 | 0.00 | 0.00 | 0.00 | 90 | 1014.9 |
| 20260901100646 | 82 | 64 | 1.0 | 3.0 | 0.00 | 0.00 | 0.00 | 90 | 1014.6 |
| 20260901100146 | 82 | 142 | 0.0 | 3.0 | 0.00 | 0.00 | 0.00 | 89 | 1014.9 |
| 20260901095646 | 82 | 97 | 1.0 | 5.0 | 0.00 | 0.00 | 0.00 | 89 | 1014.6 |
| 20260901095149 | 82 | 77 | 3.0 | 4.0 | 0.00 | 0.00 | 0.00 | 89 | 1014.9 |
| 20260901094646 | 82 | 102 | 2.0 | 5.0 | 0.00 | 0.00 | 0.00 | 89 | 1014.6 |
| 20260901094146 | 82 | 294 | 2.0 | 5.0 | 0.00 | 0.00 | 0.00 | 89 | 1014.6 |
| 20260901093648 | 82 | 147 | 4.0 | 4.0 | 0.00 | 0.00 | 0.00 | 89 | 1014.6 |
| 20260901093147 | 82 | 158 | 2.0 | 3.0 | 0.00 | 0.00 | 0.00 | 89 | 1014.9 |
| 20260901092647 | 82 | 168 | 2.0 | 2.0 | 0.00 | 0.00 | 0.00 | 89 | 1014.6 |
| 20260901092146 | 82 | 60 | 2.0 | 3.0 | 0.00 | 0.00 | 0.00 | 89 | 1014.9 |
| 20260901091646 | 82 | 59 | 1.0 | 4.0 | 0.00 | 0.00 | 0.00 | 89 | 1014.9 |
| 20260901091146 | 82 | 146 | 0.0 | 3.0 | 0.00 | 0.00 | 0.00 | 89 | 1014.9 |
| 20260901090647 | 82 | 210 | 1.0 | 4.0 | 0.00 | 0.00 | 0.00 | 89 | 1014.9 |
| 20260901090147 | 82 | 81 | 1.0 | 5.0 | 0.00 | 0.00 | 0.00 | 89 | 1014.9 |
| 20260901085646 | 82 | 31 | 2.0 | 3.0 | 0.00 | 0.00 | 0.00 | 89 | 1014.9 |
| 20260901085146 | 82 | 144 | 1.0 | 5.0 | 0.00 | 0.00 | 0.00 | 89 | 1014.9 |
| 20260901084646 | 82 | 93 | 1.0 | 5.0 | 0.00 | 0.00 | 0.00 | 89 | 1014.9 |
| 20260901084146 | 82 | 192 | 0.0 | 5.0 | 0.00 | 0.00 | 0.00 | 89 | 1014.6 |
| 20260901083647 | 82 | 170 | 2.0 | 5.0 | 0.00 | 0.00 | 0.00 | 89 | 1014.6 |
| 20260901083146 | 82 | 145 | 7.0 | 7.0 | 0.00 | 0.00 | 0.00 | 89 | 1014.9 |
| 20260901082649 | 82 | 74 | 2.0 | 4.0 | 0.00 | 0.00 | 0.00 | 89 | 1014.9 |
| 20260901082147 | 82 | 97 | 3.0 | 6.0 | 0.00 | 0.00 | 0.00 | 89 | 1014.6 |
| 20260901081647 | 82 | 64 | 1.0 | 3.0 | 0.00 | 0.00 | 0.00 | 89 | 1014.6 |
| 20260901081146 | 82 | 97 | 2.0 | 4.0 | 0.00 | 0.00 | 0.00 | 89 | 1014.9 |
| 20260901080647 | 82 | 125 | 3.0 | 4.0 | 0.00 | 0.00 | 0.00 | 89 | 1014.9 |
| 20260901080147 | 82 | 217 | 0.0 | 3.0 | 0.00 | 0.00 | 0.00 | 89 | 1014.9 |
| 20260901075647 | 82 | 63 | 5.0 | 5.0 | 0.00 | 0.00 | 0.00 | 89 | 1014.6 |
| 20260901075147 | 82 | 6 | 0.0 | 4.0 | 0.00 | 0.00 | 0.00 | 88 | 1014.9 |
| 20260901074646 | 82 | 107 | 1.0 | 3.0 | 0.00 | 0.00 | 0.00 | 89 | 1014.9 |
| 20260901074146 | 82 | 164 | 2.0 | 4.0 | 0.00 | 0.00 | 0.00 | 89 | 1014.9 |
| 20260901073646 | 82 | 144 | 2.0 | 5.0 | 0.00 | 0.00 | 0.00 | 89 | 1014.9 |
| 20260901073147 | 82 | 138 | 3.0 | 7.0 | 0.00 | 0.00 | 0.00 | 89 | 1014.9 |
| 20260901072646 | 82 | 145 | 4.0 | 5.0 | 0.00 | 0.00 | 0.00 | 90 | 1015.2 |
| 20260901072147 | 82 | 150 | 3.0 | 5.0 | 0.00 | 0.00 | 0.00 | 90 | 1014.9 |
| 20260901071647 | 82 | 149 | 1.0 | 5.0 | 0.00 | 0.00 | 0.00 | 90 | 1014.9 |
| 20260901071147 | 82 | 173 | 3.0 | 5.0 | 0.00 | 0.00 | 0.00 | 90 | 1015.2 |
| 20260901070649 | 82 | 119 | 1.0 | 4.0 | 0.00 | 0.00 | 0.00 | 90 | 1015.2 |
| 20260901070146 | 82 | 92 | 2.0 | 3.0 | 0.00 | 0.00 | 0.00 | 90 | 1015.2 |
| 20260901065646 | 82 | 154 | 1.0 | 3.0 | 0.00 | 0.00 | 0.00 | 90 | 1015.2 |
| 20260901065148 | 82 | 160 | 2.0 | 4.0 | 0.00 | 0.00 | 0.00 | 91 | 1015.2 |
| 20260901064646 | 82 | 127 | 4.0 | 4.0 | 0.00 | 0.00 | 0.00 | 91 | 1015.2 |
| 20260901064146 | 82 | 166 | 2.0 | 6.0 | 0.00 | 0.00 | 0.00 | 91 | 1015.2 |
| 20260901063647 | 82 | 160 | 4.0 | 5.0 | 0.00 | 0.00 | 0.00 | 91 | 1015.6 |
| 20260901063146 | 82 | 156 | 3.0 | 3.0 | 0.00 | 0.00 | 0.00 | 90 | 1015.6 |
| 20260901062646 | 82 | 143 | 3.0 | 4.0 | 0.00 | 0.00 | 0.00 | 90 | 1015.2 |
| 20260901062146 | 82 | 94 | 1.0 | 4.0 | 0.00 | 0.00 | 0.00 | 90 | 1015.2 |
| 20260901061647 | 82 | 155 | 2.0 | 4.0 | 0.00 | 0.00 | 0.00 | 90 | 1015.2 |
| 20260901061146 | 82 | 127 | 1.0 | 3.0 | 0.00 | 0.00 | 0.00 | 90 | 1015.2 |
| 20260901060646 | 82 | 122 | 1.0 | 2.0 | 0.00 | 0.00 | 0.00 | 90 | 1015.2 |
| 20260901060147 | 82 | 113 | 0.0 | 2.0 | 0.00 | 0.00 | 0.00 | 90 | 1015.2 |
| 20260901055647 | 82 | 152 | 2.0 | 4.0 | 0.00 | 0.00 | 0.00 | 90 | 1015.2 |
| 20260901055147 | 82 | 167 | 2.0 | 4.0 | 0.00 | 0.00 | 0.00 | 89 | 1015.6 |
| 20260901054646 | 82 | 155 | 1.0 | 4.0 | 0.00 | 0.00 | 0.00 | 90 | 1015.2 |
| 20260901054147 | 82 | 146 | 1.0 | 3.0 | 0.00 | 0.00 | 0.00 | 89 | 1015.2 |
| 20260901053646 | 82 | 208 | 0.0 | 2.0 | 0.00 | 0.00 | 0.00 | 88 | 1015.2 |
| 20260901053147 | 82 | 104 | 2.0 | 3.0 | 0.00 | 0.00 | 0.00 | 88 | 1015.6 |
| 20260901052646 | 82 | 34 | 2.0 | 5.0 | 0.00 | 0.00 | 0.00 | 88 | 1015.2 |
| 20260901052146 | 82 | 60 | 3.0 | 5.0 | 0.00 | 0.00 | 0.00 | 89 | 1015.2 |
| 20260901051648 | 82 | 140 | 2.0 | 4.0 | 0.00 | 0.00 | 0.00 | 89 | 1015.2 |
| 20260901051146 | 82 | 67 | 2.0 | 5.0 | 0.00 | 0.00 | 0.00 | 89 | 1015.6 |
| 20260901050647 | 82 | 57 | 3.0 | 4.0 | 0.00 | 0.00 | 0.00 | 89 | 1015.6 |
| 20260901050146 | 82 | 76 | 4.0 | 4.0 | 0.00 | 0.00 | 0.00 | 89 | 1015.6 |
| 20260901045646 | 82 | 73 | 3.0 | 4.0 | 0.00 | 0.00 | 0.75 | 88 | 1015.6 |
| 20260901045146 | 82 | 20 | 3.0 | 4.0 | 0.00 | 0.00 | 0.75 | 88 | 1015.9 |
| 20260901044646 | 82 | 92 | 2.0 | 4.0 | 0.00 | 0.00 | 0.75 | 88 | 1015.9 |
| 20260901044146 | 82 | 158 | 2.0 | 5.0 | 0.00 | 0.00 | 0.75 | 88 | 1015.9 |
| 20260901043647 | 82 | 69 | 2.0 | 5.0 | 0.00 | 0.00 | 0.75 | 88 | 1015.6 |
| 20260901043146 | 82 | 66 | 1.0 | 3.0 | 0.00 | 0.00 | 0.75 | 88 | 1015.6 |
| 20260901042646 | 82 | 233 | 0.0 | 3.0 | 0.00 | 0.00 | 0.75 | 88 | 1015.6 |
| 20260901042146 | 82 | 92 | 3.0 | 5.0 | 0.00 | 0.00 | 0.75 | 87 | 1015.9 |
| 20260901041646 | 82 | 74 | 3.0 | 6.0 | 0.00 | 0.00 | 0.75 | 87 | 1015.6 |
| 20260901041147 | 82 | 81 | 3.0 | 5.0 | 0.00 | 0.00 | 0.75 | 87 | 1015.6 |
| 20260901040647 | 82 | 98 | 2.0 | 4.0 | 0.00 | 0.00 | 0.75 | 87 | 1015.6 |
| 20260901040147 | 82 | 95 | 2.0 | 5.0 | 0.00 | 0.00 | 0.75 | 87 | 1015.6 |
| 20260901035646 | 83 | 89 | 3.0 | 3.0 | 0.00 | 0.00 | 0.75 | 87 | 1015.6 |
| 20260901035146 | 83 | 77 | 1.0 | 5.0 | 0.00 | 0.00 | 0.75 | 87 | 1015.6 |
| 20260901034646 | 83 | 82 | 3.0 | 6.0 | 0.00 | 0.00 | 0.75 | 87 | 1015.6 |
| 20260901034147 | 83 | 77 | 4.0 | 6.0 | 0.00 | 0.00 | 0.75 | 87 | 1015.6 |
| 20260901033647 | 83 | 100 | 2.0 | 6.0 | 0.00 | 0.00 | 0.75 | 86 | 1015.6 |
| 20260901033146 | 82 | 78 | 4.0 | 6.0 | 0.00 | 0.00 | 0.75 | 87 | 1015.6 |
| 20260901032647 | 82 | 93 | 3.0 | 5.0 | 0.00 | 0.00 | 0.75 | 87 | 1015.6 |
| 20260901032146 | 82 | 63 | 4.0 | 5.0 | 0.00 | 0.00 | 0.75 | 86 | 1015.2 |
| 20260901031647 | 83 | 37 | 3.0 | 3.0 | 0.00 | 0.00 | 0.75 | 86 | 1015.2 |
| 20260901031146 | 83 | 138 | 6.0 | 6.0 | 0.00 | 0.00 | 0.75 | 86 | 1015.2 |
| 20260901030647 | 83 | 72 | 3.0 | 3.0 | 0.00 | 0.00 | 0.75 | 85 | 1015.2 |
| 20260901030146 | 83 | 80 | 1.0 | 5.0 | 0.00 | 0.00 | 0.75 | 85 | 1015.2 |
| 20260901025646 | 83 | 78 | 5.0 | 7.0 | 0.00 | 0.00 | 0.75 | 85 | 1015.2 |
| 20260901025147 | 83 | 83 | 3.0 | 7.0 | 0.00 | 0.00 | 0.75 | 84 | 1015.2 |
| 20260901024647 | 83 | 76 | 4.0 | 6.0 | 0.00 | 0.00 | 0.75 | 84 | 1015.2 |
| 20260901024147 | 83 | 93 | 3.0 | 6.0 | 0.00 | 0.00 | 0.75 | 84 | 1015.2 |
| 20260901023648 | 83 | 30 | 4.0 | 5.0 | 0.00 | 0.00 | 0.75 | 83 | 1015.2 |
| 20260901023147 | 83 | 43 | 3.0 | 7.0 | 0.00 | 0.00 | 0.75 | 83 | 1014.9 |